DateTimeUTC,F1_A11,F1_S11,BsB_S11,BsG_S11,BsR_S11,BbsB_S11,BbsG_S11,BbsR_S11,BaB_A11,BaG_A11,BaR_A11,Tu_S11,T_S11,Uu_S11,U_S11,P_S11,T1_A11
2021-04-30T09:00:00Z,00000200,21000000,,,,,,,0000.16,-000.07,-000.09,16.6,24.0,,00.0,0680.5,31.0
2021-04-30T09:01:00Z,00000200,21000000,,,,,,,-000.25,0000.09,0000.03,16.6,24.0,,00.0,0680.5,31.0
2021-04-30T09:02:00Z,00000200,21000000,,,,,,,0000.17,-000.40,-000.36,16.6,24.0,,00.0,0680.6,31.0
2021-04-30T09:03:00Z,00000200,61000000,,,,,,,0000.07,0000.08,0000.43,16.6,24.0,,00.0,0680.6,31.0
2021-04-30T09:04:00Z,00000200,41000000,-000.08,0000.25,0000.18,0000.06,0000.12,-000.04,0000.36,0000.19,-000.09,16.7,23.8,,00.0,0681.5,31.0
2021-04-30T09:05:00Z,00000200,01000000,-000.13,0000.10,0000.17,0000.16,-000.01,-000.03,0000.15,0000.47,0000.33,16.8,23.7,00.0,00.0,0681.6,31.0
2021-04-30T09:06:00Z,00000200,01000000,-000.07,0000.02,0000.03,0000.01,0000.19,0000.10,0000.43,0000.33,0000.08,16.8,23.7,00.0,00.0,0681.6,31.0
2021-04-30T09:07:00Z,00000200,01000000,-000.05,0000.14,0000.12,-000.31,0000.05,0000.07,0000.64,0000.74,0000.53,16.8,23.7,00.1,00.1,0681.6,31.0
2021-04-30T09:08:00Z,00000200,01000000,0000.55,0000.02,-000.11,0000.33,0000.27,-000.03,0000.00,-000.57,-000.16,16.8,23.7,00.1,00.0,0681.6,31.0
2021-04-30T09:09:00Z,00000200,01000000,0000.39,0000.21,-000.12,-000.14,-000.03,-000.04,-000.13,0000.09,-000.02,16.9,23.7,00.1,00.1,0681.6,31.0
2021-04-30T09:10:00Z,00000200,01000000,-000.27,0000.31,0000.43,0000.17,0000.06,0000.11,-000.09,0000.33,-000.29,16.9,23.7,00.1,00.1,0681.6,31.0
2021-04-30T09:11:00Z,00000200,01000000,0001.24,0000.30,-000.06,0000.08,-000.07,0000.11,-000.08,0000.00,0000.35,16.9,23.7,00.1,00.0,0681.6,31.0
2021-04-30T09:12:00Z,00000200,01000000,0000.22,-000.10,-000.04,0000.16,0000.04,0000.01,0000.35,0000.09,-000.18,16.9,23.7,00.1,00.1,0681.7,31.0
2021-04-30T09:13:00Z,00000200,01000000,0000.11,-000.17,-000.20,0000.17,-000.09,-000.01,0000.30,0000.22,0000.17,16.9,23.7,00.1,00.1,0681.7,31.0
2021-04-30T09:14:00Z,00000200,01000000,0000.31,0000.11,-000.13,-000.02,-000.01,0000.01,0000.17,0000.54,0000.45,16.9,23.7,00.1,00.1,0681.7,31.0
2021-04-30T09:15:00Z,00000200,01000000,0000.76,0000.15,0000.07,0000.32,0000.05,-000.02,0000.19,0000.16,0000.07,16.9,23.7,00.2,00.1,0681.7,31.0
2021-04-30T09:16:00Z,00000200,01000000,0000.10,0000.11,0000.15,-000.34,-000.07,-000.08,0000.13,-000.05,0000.24,16.9,23.7,00.3,00.2,0681.7,31.0
2021-04-30T09:17:00Z,00000200,01000000,0000.27,0000.23,0000.18,-000.12,-000.23,0000.12,0000.30,0000.13,-000.35,16.9,23.7,00.4,00.2,0681.7,31.0
2021-04-30T09:18:00Z,00000200,01000000,0000.80,0000.11,0000.35,0000.04,0000.10,0000.12,-000.10,0000.09,0000.22,16.9,23.7,00.4,00.3,0681.7,31.0
2021-04-30T09:19:00Z,00000200,01000000,0000.21,0000.34,0000.22,0000.01,0000.04,-000.06,0000.44,0000.17,0000.19,16.9,23.6,00.4,00.3,0681.7,31.0
2021-04-30T09:20:00Z,00000200,01000000,0000.42,0000.36,0000.22,-000.35,-000.18,0000.37,-000.31,-000.25,-000.62,16.9,23.7,00.4,00.3,0681.7,31.0
2021-04-30T09:21:00Z,00000200,01000000,-000.25,0000.42,0000.43,-000.52,0000.01,-000.13,-000.25,0000.07,0000.36,16.9,23.6,00.3,00.2,0681.7,31.0
2021-04-30T09:22:00Z,00000200,01000000,0000.31,0000.46,0000.20,0000.14,-000.04,0000.40,0000.18,-000.27,-000.14,16.8,23.6,00.3,00.2,0681.7,31.0
2021-04-30T09:23:00Z,00000200,01000000,0000.63,0000.39,0000.16,0000.03,0000.03,0000.15,0004.45,0004.33,0003.14,16.8,23.6,00.6,00.4,0681.8,31.0
2021-04-30T09:24:00Z,00000200,01000000,0000.01,0000.44,-000.02,0000.28,0000.04,-000.13,-002.99,-002.73,-002.08,16.8,23.6,01.3,00.9,0681.9,31.0
2021-04-30T09:25:00Z,00000200,01000000,0000.38,0000.55,0000.35,0000.03,0000.29,-000.07,0002.17,0001.81,0001.37,16.8,23.6,00.7,00.5,0682.1,31.0
2021-04-30T09:26:00Z,00000200,01000000,0001.02,0000.50,0000.49,0000.05,0000.16,0000.07,-001.01,-000.47,-000.34,16.8,23.6,01.4,00.9,0682.5,31.0
2021-04-30T09:27:00Z,00000200,01000000,0001.14,0000.58,0000.18,-000.17,-000.02,0000.14,0000.07,-000.43,-000.09,16.8,23.6,00.9,00.6,0682.5,31.0
2021-04-30T09:28:00Z,00000200,01000000,0000.82,0000.45,0000.08,0000.16,-000.11,0000.08,0000.00,0000.34,-000.08,16.8,23.6,00.9,00.6,0682.5,31.0
2021-04-30T09:29:00Z,00000200,01000000,0001.22,0000.84,0000.18,-000.36,0000.12,0000.33,0000.12,0000.30,0000.37,16.8,23.6,00.9,00.6,0682.5,31.0
2021-04-30T09:30:00Z,00000200,01000000,0001.11,0000.53,0000.24,0000.33,0000.07,0000.44,0000.58,-000.21,-000.25,16.8,23.6,00.8,00.6,0682.5,31.0
2021-04-30T09:31:00Z,00000200,01000000,0001.00,0000.53,0000.13,0000.01,-000.07,0000.22,0000.65,0001.02,0000.73,16.8,23.6,01.0,00.7,0682.5,30.9
2021-04-30T09:32:00Z,00000200,01000000,0000.81,0000.61,0000.01,0000.47,0000.16,-000.15,-000.16,-000.28,0000.02,16.8,23.5,00.9,00.6,0682.5,31.0
2021-04-30T09:33:00Z,00000200,01000000,0000.45,0000.46,0000.06,-000.07,0000.14,0000.16,-000.39,-000.17,-000.39,16.8,23.5,00.9,00.6,0682.5,31.0
2021-04-30T09:34:00Z,00000200,01000000,0000.25,0000.43,0000.27,0000.46,0000.31,0000.11,0000.21,-000.04,0000.43,16.8,23.5,00.7,00.5,0682.5,31.0
2021-04-30T09:35:00Z,00000200,01000000,-000.31,0000.45,-000.11,-000.24,0000.27,-000.08,-000.47,-000.32,-000.19,16.8,23.5,00.6,00.4,0682.5,31.0
2021-04-30T09:36:00Z,00000200,01000000,0000.50,0000.23,-000.08,0000.10,0000.04,-000.16,0000.12,-000.05,-000.22,16.8,23.5,00.6,00.4,0682.5,31.0
2021-04-30T09:37:00Z,00000200,01000000,0000.20,0000.40,-000.07,0000.04,0000.11,-000.29,0000.13,0000.39,0000.25,16.8,23.5,00.7,00.4,0682.6,31.0
2021-04-30T09:38:00Z,00000200,01000000,0000.72,0000.35,0000.35,0000.27,0000.02,0000.29,0000.61,0000.67,0000.38,16.9,23.5,00.6,00.4,0682.6,31.0
2021-04-30T09:39:00Z,00000200,01000000,0000.83,0000.27,0000.28,0000.18,0000.05,-000.00,0000.31,-000.05,0000.10,16.9,23.6,00.8,00.5,0682.6,31.0
2021-04-30T09:40:00Z,00000200,01000000,0000.45,0000.39,0000.04,0000.48,0000.26,-000.13,0000.34,0000.70,0000.22,17.0,23.6,00.9,00.6,0682.6,31.0
2021-04-30T09:41:00Z,00000200,01000000,0001.12,0000.65,0000.30,0000.37,0000.00,-000.29,0000.54,0000.29,0000.41,17.0,23.6,00.9,00.6,0682.6,31.0
2021-04-30T09:42:00Z,00000200,01000000,0000.58,0000.88,0000.24,0000.11,-000.04,0000.18,0000.49,0000.29,0000.22,17.1,23.7,01.0,00.6,0682.6,31.0
2021-04-30T09:43:00Z,00000200,01000000,0000.82,0000.92,-000.08,0000.10,0000.19,-000.22,-000.04,0000.20,-000.03,17.1,23.7,01.2,00.8,0682.6,31.0
2021-04-30T09:44:00Z,00000200,01000000,0000.99,0000.57,0000.65,-000.08,0000.02,0000.02,0000.36,0000.23,-000.06,17.1,23.7,01.2,00.8,0682.6,31.0
2021-04-30T09:45:00Z,00000200,01000000,0001.50,0000.52,0000.39,0000.18,0000.11,-000.08,0000.49,0000.05,0000.45,17.1,23.7,01.2,00.8,0682.6,31.0
2021-04-30T09:46:00Z,00000200,01000000,0000.26,0000.58,0000.22,-000.32,0000.06,-000.06,0000.04,0000.58,0000.25,17.1,23.7,01.3,00.9,0682.6,31.0
2021-04-30T09:47:00Z,00000200,01000000,0000.80,0000.71,0000.54,-000.08,-000.07,0000.19,0000.20,0000.10,0000.01,17.0,23.7,01.3,00.8,0682.6,31.0
2021-04-30T09:48:00Z,00000200,01000000,0000.98,0000.48,0000.27,0001.15,0000.11,-000.02,0000.27,0000.10,0000.22,17.0,23.7,01.3,00.9,0682.6,31.0
2021-04-30T09:49:00Z,00000200,01000000,0001.43,0000.47,0000.37,0000.15,0000.08,-000.13,0000.15,0000.19,-000.06,17.0,23.7,01.2,00.8,0682.6,31.0
2021-04-30T09:50:00Z,00000200,01000000,0001.29,0000.34,0000.14,0000.24,0000.07,0000.10,-000.34,-000.04,0000.24,17.0,23.7,01.3,00.8,0682.6,31.0
2021-04-30T09:51:00Z,00000200,01000000,0000.63,0000.48,0000.35,0000.04,0000.05,0000.21,0000.97,0000.46,0000.22,17.0,23.7,01.2,00.8,0682.6,31.0
2021-04-30T09:52:00Z,00000200,01000000,0001.41,0000.41,0000.26,-000.31,0000.13,0000.30,0000.40,0000.31,0000.47,17.0,23.7,01.5,01.0,0682.6,31.0
2021-04-30T09:53:00Z,00000200,01000000,0001.61,0000.19,0000.18,-000.01,-000.18,0000.39,-000.06,-000.43,-000.35,17.0,23.7,01.4,01.0,0682.6,31.0
2021-04-30T09:54:00Z,00000200,01000000,0001.06,0000.66,0000.24,0000.62,0000.17,0000.13,-000.02,0000.58,0000.42,17.0,23.7,01.4,00.9,0682.6,31.0
2021-04-30T09:55:00Z,00000200,01000000,0000.68,0000.54,0000.37,0000.46,-000.07,0000.41,0000.51,0000.22,-000.05,17.0,23.6,01.4,00.9,0682.6,31.0
2021-04-30T09:56:00Z,00000200,01000000,0001.28,0000.19,0000.45,-000.18,-000.08,0000.12,0000.20,0000.30,0000.26,17.0,23.6,01.3,00.9,0682.6,31.0
2021-04-30T09:57:00Z,00000200,41000000,,,,,,,-001.35,-001.27,-000.70,17.1,23.7,00.9,00.6,0682.7,31.0
2021-04-30T09:58:00Z,00000200,61000000,,,,,,,0000.65,0000.73,0000.32,16.8,23.8,00.9,00.6,0681.6,31.0
2021-04-30T09:59:00Z,00000200,21000000,,,,,,,0000.50,0000.09,0000.02,16.8,23.9,00.9,00.6,0681.6,31.0
